EDT,Max TemperatureF,Mean TemperatureF,Min TemperatureF,Max Dew PointF,MeanDew PointF,Min DewpointF,Max Humidity, Mean Humidity, Min Humidity, Max Sea Level PressureIn, Mean Sea Level PressureIn, Min Sea Level PressureIn, Max VisibilityMiles, Mean VisibilityMiles, Min VisibilityMiles, Max Wind SpeedMPH, Mean Wind SpeedMPH, Max Gust SpeedMPH,PrecipitationIn, CloudCover, Events, WindDirDegrees
2011-10-1,50,43,35,35,33,30,92,72,52,30.31,30.23,30.10,10,10,10,24,12,31,0.00,4,,3
2011-10-2,61,46,30,41,35,26,96,62,27,30.25,30.19,30.10,10,10,10,15,5,20,0.00,0,,325
2011-10-3,64,54,43,46,41,33,100,67,34,30.23,30.19,30.13,10,10,10,15,5,18,0.00,0,,343
2011-10-4,73,56,38,52,44,37,100,68,35,30.29,30.24,30.20,10,9,2,12,2,14,0.00,0,,53
2011-10-5,61,52,43,50,44,41,100,76,51,30.35,30.30,30.21,10,10,10,16,5,23,0.00,0,,79
2011-10-6,73,57,41,57,49,39,100,75,49,30.36,30.32,30.28,10,6,0,13,2,15,0.00,2,Fog,159
2011-10-7,81,62,42,56,50,41,96,68,39,30.37,30.31,30.28,10,9,2,16,5,20,0.00,0,,176
2011-10-8,84,70,55,56,53,49,78,54,29,30.33,30.29,30.25,10,10,10,15,7,18,0.00,0,,205
2011-10-9,83,66,48,55,51,46,93,61,28,30.36,30.32,30.27,10,10,7,13,3,18,0.00,0,,220
2011-10-10,74,59,43,58,50,41,100,77,53,30.32,30.26,30.17,10,10,4,10,3,14,0.00,0,,125
2011-10-11,74,59,44,57,50,44,93,73,53,30.15,30.08,30.02,10,6,1,13,3,16,0.00,1,,125
2011-10-12,68,54,40,59,50,41,100,82,63,30.02,29.95,29.81,10,5,0,14,5,20,0.02,3,Fog,127
2011-10-13,63,59,55,57,55,54,100,89,78,29.79,29.62,29.42,10,6,1,15,5,21,0.08,7,Rain,94
2011-10-14,59,53,47,57,50,42,100,84,67,29.39,29.27,29.18,10,8,2,21,9,32,0.13,8,Rain,237
2011-10-15,50,47,44,43,39,33,89,73,56,29.62,29.39,29.26,10,10,10,28,13,43,0.03,7,Rain,268
2011-10-16,58,47,35,39,35,30,86,61,36,29.66,29.59,29.50,10,10,10,31,8,49,0.02,3,Rain,250
2011-10-17,50,46,41,37,34,27,71,58,45,29.69,29.57,29.49,10,10,10,18,8,25,T,7,,248
2011-10-18,53,45,36,40,38,35,92,76,59,29.92,29.80,29.69,10,10,10,15,4,22,T,6,Rain,306
2011-10-19,45,39,32,41,38,31,96,90,83,29.91,29.83,29.64,10,9,4,30,16,38,0.95,6,Rain,31
2011-10-20,44,42,40,44,41,39,100,95,89,29.61,29.42,29.31,10,5,2,32,18,43,2.25,8,Rain,1
2011-10-21,51,43,35,39,36,32,93,75,56,30.04,29.88,29.60,10,10,4,14,6,22,T,5,Rain,291
2011-10-22,58,43,28,42,34,28,100,74,47,30.06,30.04,30.01,10,9,1,12,2,14,0.00,1,,195
2011-10-23,60,44,27,45,34,27,100,72,44,30.02,29.96,29.80,10,6,0,10,2,14,0.00,2,Fog,155
2011-10-24,55,43,31,46,39,34,89,70,50,30.06,29.83,29.69,10,10,6,22,7,31,0.05,4,Rain,259
2011-10-25,43,37,31,43,38,30,100,91,82,30.17,30.07,29.97,10,9,5,10,3,13,0.48,6,Rain,105
2011-10-26,46,42,38,41,38,36,96,84,71,29.97,29.95,29.91,10,10,9,14,7,17,T,8,Rain,32
2011-10-27,43,37,30,37,34,30,100,81,62,30.12,30.00,29.95,10,10,6,12,2,15,0.07,6,Rain,261
2011-10-28,47,36,25,36,30,25,100,77,53,30.22,30.14,30.09,10,7,0,13,3,17,0.01,3,Fog-Rain,195
2011-10-29,48,37,26,39,33,27,100,80,60,30.13,30.07,30.04,10,8,0,10,1,14,0.03,4,Fog-Rain,141
2011-10-30,50,38,25,38,29,25,100,75,50,30.19,30.12,30.08,10,4,0,13,4,17,0.01,2,Fog,176
2011-10-31,56,46,35,40,38,35,93,72,51,30.12,30.06,30.01,10,10,9,16,8,22,T,5,Rain,172